Location: Newark
(46.2061°N, 4.0794°E)
Time: 13:30:27
(UTC+00:00)

ISS - Visible Passes

Search period start: 16 December 2019 00:00
Search period end: 26 December 2019 00:00
Orbit: 411 x 421 km, 51.6° (Epoch: 16 December)

Date Brightness Start Highest point End Pass type
(mag) Time Alt. Az. Time Alt. Az. Time Alt. Az.
20 Dec -0.1 06:08:51 10° SSE 06:09:45 11° SE 06:10:39 10° ESE visible
22 Dec -1.5 06:06:11 10° SSW 06:09:01 26° SE 06:11:51 10° E visible
23 Dec -0.8 05:18:27 10° S 05:20:38 16° SE 05:22:48 10° E visible
24 Dec -3.3 06:05:08 10° SW 06:08:25 62° SSE 06:11:42 10° ENE visible
25 Dec -2.5 05:18:53 30° S 05:19:54 38° SE 05:23:01 10° ENE visible
